Showing default

COSMOS 2545 (GLONASS), 45358

Orbit data source: Space-Track

COSMOS 2545 (GLONASS), 45358 is a Commonwealth of Independent States-origin payload satellite in MEO that was launched on Mon, 16 Mar 2020 UTC via a SOYUZ-2-1B launch vehicle from the Plesetsk Missile And Space Complex (PKMTR). Payload-class satellites include a variety of spacecraft equipped with specific instruments for various scientific and technological missions. These include communications satellites like Starlink; space stations such as the ISS; scientific satellites like the Hubble; Earth observation satellites from companies like Planet Labs, Umbra, and HawkEye 360; GPS; miniature CubeSats for education and research; and military/defense satellites.

Loading next visibility...
Identifier
45358, 2020-018A
Orbit
MEO
Country
Flag of CISCIS
Related business
Manufacturer
Resehetnev ISS
Mission
Operational Defense Navigation
Bus & Motor
URAGAN, Unknown motor
Mass
1,450 kg wet, ~1,200 kg dry
Launch date (UTC)
2020-03-16 (6 years ago)
Launch vehicle
SOYUZ-2-1B
Launch site
Plesetsk Missile And Space Complex (PKMTR)
Object type
Payload
Rocket body
Debris
Shape & HBR
Cyl + 1 Ant + 2 Pan, Unknown HBR
Radar Cross Section
8.467 m², Large (>1 m²)

Expand to show TLE details & history
Last TLE update: 1 day ago

TLE from 1 day ago
0 COSMOS 2545 (GLONASS)
1 45358U 20018A   26172.44771125 -.00000070  00000-0  00000+0 0  9992
2 45358  64.3522 312.2691 0008538 229.7287 130.1903  2.13102330 48750
Epoch: 2026-06-21T10:44Z
TLE epoch observation values (Epoch: 2026-06-21T10:44:42.252Z)
Latitude
-0.00002°
Longitude
-118.56862°
Altitude
19,144.46 km
Speed
3.951 km/s
True Right ascension
20h 49m 01s
True Declination
0° 00' 00"
Sunlit
Object was in daylight at epoch
Visualization orbit readout
Latitude
Unknown
Longitude
Unknown
Altitude
Unknown
Speed
Unknown
Apparent Right ascension
Unknown
Apparent Declination
Unknown
Sunlit
N/A
Visualization observer readout
Local Sidereal Time
21:25:51
Azimuth
Unknown
Elevation
Unknown
Doppler factor
Unknown
Orbital elements
Apogee altitude
19,151.277 km
Perigee altitude
19,107.72 km
Semi-major axis
25,507.636 km
Eccentricity
0.00085
Inclination
64.3522°
RAAN
312.2691°
Arg. of periapsis
229.7287°
True anomaly
130.26499°
Mean anomaly
130.1903°
Eccentric anomaly
130.22765°
Mean motion
0.53277 °/min
Orbital period
675.72 mins
BSTAR
0
Loading maneuver chart data...
Computing Atmospheric mass density...
Loading historical data...
Loading historical data...
Loading historical data...
Loading historical data...
Loading historical data...
Loading historical data...
Loading historical data...
Other satellites on launch #18 in the year 2020 (2020-03-16 UTC)

Documentation

Showing up to 5 results
|